Weather History for Ronchi Dei Legionari, Italy

Change the Weather History Date:

Monday, December 3, 2012

  Actual Average Record
Temperature  
Mean Temperature 39 °F -  
Max Temperature 50 °F 46 °F 60 °F (2003)
Min Temperature 28 °F 32 °F 26 °F (1996)
Degree Days  
Heating Degree Days 26    
Moisture  
Dew Point 29 °F    
Average Humidity 71    
Maximum Humidity 87    
Minimum Humidity 40    
Precipitation  
Precipitation 0.00 in 0.12 in - ()
Sea Level Pressure  
Sea Level Pressure 29.90 in    
Wind  
Wind Speed 2 mph ()    
Max Wind Speed 7 mph    
Max Gust Speed -    
Visibility 6.2 miles    
Events Fog    
Averages and records for this station are not official NWS values.
T = Trace of Precipitation, MM = Missing Value Source: Averaged Metar Reports

Daily Weather History Graph

Daily Weather History Graph

Search for Another Location

Airport:

Trip Planner

Search our weather history database for the weather conditions in past years. The results will help you decide how hot, cold, wet, or windy it might be!

Date:

Astronomy

Dec. 03, 2012 Rise Set
Actual Time 7:29 AM CET 4:22 PM CET
Civil Twilight 6:55 AM CET 4:56 PM CET
Nautical Twilight 6:18 AM CET 5:33 PM CET
Astronomical Twilight 5:42 AM CET 6:09 PM CET
Moon 8:59 PM CET (12/3) 10:36 AM CET (12/3)
Length of Visible Light 10h 00m
Length of Day
8h 52m
Waning Gibbous, 80% of the Moon is Illuminated
Dec 3
Waning Gibbous
Dec 6
Last Quarter
Dec 13
New
Dec 20
First Quarter
Dec 28
Full

Hourly Weather History & Observations

Time (CET) Temp. Windchill Dew Point Humidity Pressure Visibility Wind Dir Wind Speed Gust Speed Precip Events Conditions
12:20 AM 39.2 °F - 32.0 °F 75% 29.77 in 6.2 mi Calm Calm - N/A   Mostly Cloudy
12:50 AM 37.4 °F - 32.0 °F 81% 29.77 in 6.2 mi Variable 2.3 mph - N/A   Mostly Cloudy
1:20 AM 37.4 °F 33.8 °F 32.0 °F 81% 29.80 in 6.2 mi WNW 4.6 mph - N/A   Mostly Cloudy
1:50 AM 37.4 °F - 30.2 °F 75% 29.77 in 6.2 mi Variable 2.3 mph - N/A   Mostly Cloudy
2:20 AM - - - N/A% 29.80 in 6.2 mi Variable 1.2 mph - N/A   Mostly Cloudy
2:50 AM 35.6 °F 32.8 °F 30.2 °F 81% 29.83 in 6.2 mi Variable 3.5 mph - N/A   Scattered Clouds
3:50 AM 33.8 °F - 28.4 °F 81% 29.83 in 6.2 mi Variable 1.2 mph - N/A   Scattered Clouds
4:20 AM 33.8 °F - 26.6 °F 75% 29.83 in 6.2 mi Variable 1.2 mph - N/A   Scattered Clouds
4:50 AM 33.8 °F - 26.6 °F 75% 29.83 in 6.2 mi Calm Calm - N/A   Scattered Clouds
5:20 AM 32.0 °F - 24.8 °F 75% 29.86 in 6.2 mi Calm Calm - N/A   Scattered Clouds
5:50 AM 30.2 °F - 24.8 °F 80% 29.86 in 6.2 mi Variable 1.2 mph - N/A   Scattered Clouds
6:20 AM 30.2 °F - 24.8 °F 80% 29.86 in 6.2 mi Calm Calm - N/A   Partly Cloudy
6:50 AM 28.4 °F - 23.0 °F 80% 29.89 in 6.2 mi Calm Calm - N/A   Partly Cloudy
7:20 AM 30.2 °F - 24.8 °F 80% 29.89 in 6.2 mi Calm Calm - N/A Fog Shallow Fog
7:50 AM 30.2 °F - 24.8 °F 80% 29.89 in 6.2 mi Calm Calm - N/A Fog Shallow Fog
8:20 AM 30.2 °F - 24.8 °F 80% 29.89 in - Variable 1.2 mph - N/A   Clear
8:50 AM 33.8 °F - 30.2 °F 87% 29.92 in - Calm Calm - N/A   Clear
9:20 AM 35.6 °F - 32.0 °F 87% 29.92 in - Calm Calm - N/A   Clear
9:50 AM 37.4 °F - 32.0 °F 81% 29.92 in - Variable 2.3 mph - N/A   Clear
10:20 AM 41.0 °F - 33.8 °F 76% 29.95 in - Calm Calm - N/A   Clear
10:50 AM 42.8 °F - 33.8 °F 70% 29.95 in - Variable 1.2 mph - N/A   Clear
11:20 AM 42.8 °F - 26.6 °F 53% 29.95 in - Variable 2.3 mph - N/A   Clear
11:50 AM 44.6 °F 43.1 °F 26.6 °F 49% 29.95 in - Variable 3.5 mph - N/A   Clear
12:20 PM 46.4 °F 44.3 °F 33.8 °F 62% 29.95 in - West 4.6 mph - N/A   Clear
12:50 PM 46.4 °F 44.3 °F 32.0 °F 57% 29.95 in - NW 4.6 mph - N/A   Clear
1:20 PM 48.2 °F - 24.8 °F 40% 29.92 in - Variable 2.3 mph - N/A   Clear
1:50 PM 48.2 °F - 30.2 °F 50% 29.92 in - Variable 3.5 mph - N/A   Clear
2:20 PM 50.0 °F - 30.2 °F 47% 29.92 in - Calm Calm - N/A   Clear
2:50 PM 50.0 °F - 30.2 °F 47% 29.92 in - Calm Calm - N/A   Clear
3:20 PM 48.2 °F - 30.2 °F 50% 29.92 in 6.2 mi Variable 1.2 mph - N/A   Partly Cloudy
3:50 PM 50.0 °F - 32.0 °F 50% 29.92 in 6.2 mi Variable 2.3 mph - N/A   Scattered Clouds
4:20 PM 44.6 °F 42.2 °F 33.8 °F 66% 29.92 in 6.2 mi SSE 4.6 mph - N/A   Scattered Clouds
4:50 PM 44.6 °F - 33.8 °F 66% 29.92 in 6.2 mi Variable 2.3 mph - N/A   Scattered Clouds
5:20 PM 41.0 °F 38.0 °F 32.0 °F 70% 29.92 in 6.2 mi East 4.6 mph - N/A   Scattered Clouds
5:50 PM 39.2 °F - 32.0 °F 75% 29.92 in 6.2 mi Variable 2.3 mph - N/A   Partly Cloudy
6:20 PM 37.4 °F 32.1 °F 30.2 °F 75% 29.95 in 6.2 mi East 6.9 mph - N/A   Partly Cloudy
6:50 PM 35.6 °F 29.9 °F 30.2 °F 81% 29.92 in 6.2 mi East 6.9 mph - N/A   Partly Cloudy
7:20 PM 33.8 °F 30.8 °F 28.4 °F 81% 29.92 in 6.2 mi Variable 3.5 mph - N/A   Partly Cloudy
7:50 PM 33.8 °F - 28.4 °F 81% 29.95 in - Variable 2.3 mph - N/A   Clear
8:20 PM 33.8 °F - 26.6 °F 75% 29.95 in - Variable 1.2 mph - N/A   Clear
8:50 PM 33.8 °F 30.8 °F 26.6 °F 75% 29.95 in - Variable 3.5 mph - N/A   Clear
9:20 PM 32.0 °F 27.5 °F 26.6 °F 80% 29.95 in - East 4.6 mph - N/A   Clear
9:50 PM 32.0 °F 28.7 °F 26.6 °F 80% 29.95 in - Variable 3.5 mph - N/A   Clear
10:20 PM 33.8 °F 30.8 °F 26.6 °F 75% 29.95 in - Variable 3.5 mph - N/A   Clear
10:50 PM 33.8 °F - 26.6 °F 75% 29.95 in - Variable 2.3 mph - N/A   Clear
11:20 PM 32.0 °F 27.5 °F 23.0 °F 69% 29.92 in - ENE 4.6 mph - N/A   Clear
11:50 PM 32.0 °F 28.7 °F 21.2 °F 64% 29.92 in - Variable 3.5 mph - N/A   Clear